| time (UTC) | temp F | wind direction | speed knots | gust knots | rain 1hr in | rain 24hr in | rain mn in | humidity % | barometer mb |
| 20260507170046 | 58 | 48 | 9.6 | 13.9 | 0.00 | 0.00 | 0.00 | 67 | 1006.5 |
| 20260507164552 | 56 | 36 | 6.1 | 13.9 | 0.00 | 0.00 | 0.00 | 68 | 1006.6 |
| 20260507163045 | 56 | 11 | 6.1 | 11.3 | 0.00 | 0.00 | 0.00 | 67 | 1006.8 |
| 20260507161550 | 56 | 72 | 7.0 | 13.9 | 0.00 | 0.00 | 0.00 | 67 | 1006.7 |
| 20260507160110 | 56 | 49 | 7.0 | 13.9 | 0.00 | 0.00 | 0.00 | 68 | 1006.8 |
| 20260507154544 | 55 | 42 | 7.0 | 13.0 | 0.00 | 0.00 | 0.00 | 70 | 1006.6 |
| 20260507153044 | 54 | 30 | 8.7 | 13.0 | 0.00 | 0.00 | 0.00 | 72 | 1006.8 |
| 20260507151543 | 52 | 68 | 7.8 | 13.0 | 0.00 | 0.00 | 0.00 | 76 | 1006.9 |
| 20260507150043 | 51 | 74 | 7.0 | 11.3 | 0.00 | 0.00 | 0.00 | 80 | 1006.8 |
| 20260507144543 | 51 | 76 | 7.0 | 13.9 | 0.00 | 0.00 | 0.00 | 79 | 1006.8 |
| 20260507143040 | 51 | 79 | 7.8 | 12.2 | 0.00 | 0.00 | 0.00 | 75 | 1006.8 |
| 20260507141538 | 52 | 66 | 7.0 | 10.4 | 0.00 | 0.00 | 0.00 | 75 | 1006.8 |
| 20260507140045 | 49 | 74 | 7.8 | 13.0 | 0.00 | 0.00 | 0.00 | 75 | 1006.8 |
| 20260507134536 | 49 | 75 | 7.0 | 13.0 | 0.00 | 0.00 | 0.00 | 73 | 1006.5 |
| 20260507133035 | 49 | 59 | 8.7 | 15.6 | 0.00 | 0.00 | 0.00 | 71 | 1006.5 |
| 20260507131604 | 48 | 80 | 7.0 | 13.9 | 0.00 | 0.00 | 0.00 | 72 | 1006.3 |
| 20260507130029 | 48 | 85 | 8.7 | 14.8 | 0.00 | 0.00 | 0.00 | 71 | 1006.2 |
| 20260507124530 | 48 | 100 | 8.7 | 12.2 | 0.00 | 0.00 | 0.00 | 69 | 1006.0 |
| 20260507123030 | 48 | 89 | 7.8 | 13.9 | 0.00 | 0.00 | 0.00 | 68 | 1005.8 |
| 20260507121523 | 48 | 83 | 9.6 | 17.4 | 0.00 | 0.00 | 0.00 | 67 | 1005.6 |
| 20260507120029 | 49 | 83 | 9.6 | 14.8 | 0.00 | 0.00 | 0.00 | 65 | 1005.3 |
| 20260507114516 | 50 | 65 | 11.3 | 18.2 | 0.00 | 0.00 | 0.00 | 62 | 1005.3 |
| 20260507113026 | 51 | 102 | 8.7 | 16.5 | 0.00 | 0.00 | 0.00 | 58 | 1005.1 |
| 20260507111507 | 55 | 83 | 8.7 | 13.0 | 0.00 | 0.00 | 0.00 | 49 | 1004.7 |
| 20260507110004 | 59 | 49 | 3.5 | 7.0 | 0.00 | 0.00 | 0.00 | 48 | 1004.3 |
| 20260507104503 | 62 | 65 | 3.5 | 5.2 | 0.00 | 0.00 | 0.00 | 34 | 1004.3 |
| 20260507103100 | 62 | 76 | 3.5 | 5.2 | 0.00 | 0.00 | 0.00 | 36 | 1003.9 |
| 20260507101559 | 62 | 76 | 2.6 | 4.3 | 0.00 | 0.00 | 0.00 | 35 | 1004.0 |
| 20260507094611 | 62 | 71 | 3.5 | 7.0 | 0.00 | 0.00 | 0.00 | 35 | 1003.9 |
| 20260507093057 | 62 | 67 | 2.6 | 5.2 | 0.00 | 0.00 | 0.00 | 33 | 1003.8 |
| 20260507091555 | 63 | 65 | 2.6 | 4.3 | 0.00 | 0.00 | 0.00 | 34 | 1003.8 |
| 20260507090055 | 63 | 72 | 2.6 | 4.3 | 0.00 | 0.00 | 0.00 | 35 | 1003.9 |
| 20260507084559 | 63 | 72 | 3.5 | 7.0 | 0.00 | 0.00 | 0.00 | 34 | 1004.0 |
| 20260507083053 | 62 | 96 | 2.6 | 3.5 | 0.00 | 0.00 | 0.00 | 47 | 1004.1 |
| 20260507081552 | 62 | 96 | 1.7 | 5.2 | 0.00 | 0.00 | 0.00 | 48 | 1004.1 |
| 20260507080053 | 62 | 97 | 1.7 | 6.1 | 0.00 | 0.00 | 0.00 | 48 | 1004.3 |
| 20260507074552 | 62 | 96 | 2.6 | 5.2 | 0.00 | 0.00 | 0.00 | 49 | 1004.3 |
| 20260507073051 | 62 | 121 | 3.5 | 7.0 | 0.00 | 0.00 | 0.00 | 49 | 1004.3 |
| 20260507071548 | 62 | 108 | 4.3 | 7.0 | 0.00 | 0.00 | 0.00 | 51 | 1004.2 |
| 20260507070057 | 62 | 107 | 3.5 | 7.8 | 0.00 | 0.00 | 0.00 | 53 | 1004.1 |
| 20260507064547 | 62 | 97 | 4.3 | 8.7 | 0.00 | 0.00 | 0.00 | 56 | 1004.1 |
| 20260507063046 | 62 | 153 | 2.6 | 9.6 | 0.00 | 0.00 | 0.00 | 55 | 1004.2 |
| 20260507061541 | 63 | 98 | 3.5 | 5.2 | 0.00 | 0.00 | 0.00 | 52 | 1004.1 |
| 20260507060043 | 64 | 67 | 3.5 | 4.3 | 0.00 | 0.00 | 0.00 | 46 | 1003.9 |
| 20260507054539 | 64 | 125 | 0.0 | 1.7 | 0.00 | 0.00 | 0.00 | 39 | 1003.8 |
| 20260507053032 | 64 | 125 | 0.0 | 2.6 | 0.00 | 0.00 | 0.00 | 42 | 1003.8 |
| 20260507051530 | 64 | 125 | 0.0 | 6.1 | 0.00 | 0.00 | 0.00 | 40 | 1003.9 |
| 20260507050049 | 64 | 119 | 2.6 | 5.2 | 0.00 | 0.00 | 0.00 | 41 | 1003.8 |
| 20260507044525 | 65 | 111 | 1.7 | 7.0 | 0.00 | 0.00 | 0.00 | 34 | 1003.8 |
| 20260507043025 | 66 | 102 | 3.5 | 6.1 | 0.00 | 0.00 | 0.00 | 29 | 1003.9 |
| 20260507041526 | 66 | 109 | 0.9 | 5.2 | 0.00 | 0.00 | 0.00 | 26 | 1003.8 |
| 20260507040024 | 68 | 28 | 1.7 | 4.3 | 0.00 | 0.00 | 0.00 | 22 | 1003.5 |
| 20260507034526 | 69 | 175 | 0.9 | 6.1 | 0.00 | 0.00 | 0.00 | 22 | 1003.2 |
| 20260507033029 | 69 | 191 | 4.3 | 8.7 | 0.00 | 0.00 | 0.00 | 21 | 1003.1 |
| 20260507031517 | 70 | 189 | 4.3 | 7.8 | 0.00 | 0.00 | 0.00 | 19 | 1003.0 |
| 20260507030016 | 70 | 190 | 3.5 | 5.2 | 0.00 | 0.00 | 0.00 | 18 | 1002.7 |
| 20260507024517 | 70 | 190 | 3.5 | 5.2 | 0.00 | 0.00 | 0.00 | 18 | 1002.5 |
| 20260507023015 | 70 | 197 | 3.5 | 5.2 | 0.00 | 0.00 | 0.00 | 18 | 1002.2 |
| 20260507021521 | 70 | 209 | 2.6 | 4.3 | 0.00 | 0.00 | 0.00 | 18 | 1002.1 |
| 20260507020020 | 71 | 209 | 2.6 | 5.2 | 0.00 | 0.00 | 0.00 | 19 | 1001.7 |
| 20260507014519 | 71 | 207 | 3.5 | 5.2 | 0.00 | 0.00 | 0.00 | 18 | 1001.5 |
| 20260507013012 | 72 | 224 | 2.6 | 5.2 | 0.00 | 0.00 | 0.00 | 18 | 1001.3 |
| 20260507011517 | 74 | 242 | 4.3 | 7.0 | 0.00 | 0.00 | 0.00 | 17 | 1001.2 |
| 20260507010026 | 75 | 252 | 5.2 | 8.7 | 0.00 | 0.00 | 0.00 | 16 | 1001.0 |
| 20260507004510 | 75 | 240 | 5.2 | 8.7 | 0.00 | 0.00 | 0.00 | 16 | 1000.9 |
| 20260507003009 | 74 | 244 | 4.3 | 9.6 | 0.00 | 0.00 | 0.00 | 17 | 1000.8 |
| 20260507001509 | 74 | 252 | 6.1 | 10.4 | 0.00 | 0.00 | 0.00 | 17 | 1000.6 |
| 20260507000008 | 74 | 240 | 7.0 | 13.0 | 0.00 | 0.00 | 0.00 | 16 | 1000.6 |
| 20260506234508 | 75 | 244 | 5.2 | 10.4 | 0.00 | 0.00 | 0.00 | 15 | 1000.6 |
| 20260506233008 | 75 | 325 | 5.2 | 11.3 | 0.00 | 0.00 | 0.00 | 16 | 1000.6 |
| 20260506231506 | 75 | 290 | 7.0 | 13.0 | 0.00 | 0.00 | 0.00 | 15 | 1000.6 |
| 20260506230005 | 75 | 268 | 7.8 | 13.9 | 0.00 | 0.00 | 0.00 | 15 | 1000.5 |
| 20260506224505 | 76 | 249 | 9.6 | 13.9 | 0.00 | 0.00 | 0.00 | 14 | 1000.5 |
| 20260506223004 | 76 | 290 | 9.6 | 14.8 | 0.00 | 0.00 | 0.00 | 13 | 1000.5 |
| 20260506221504 | 77 | 274 | 7.0 | 13.9 | 0.00 | 0.00 | 0.00 | 13 | 1000.4 |
| 20260506220003 | 77 | 271 | 6.1 | 13.9 | 0.00 | 0.00 | 0.00 | 14 | 1000.3 |
| 20260506214502 | 77 | 297 | 7.8 | 16.5 | 0.00 | 0.00 | 0.00 | 14 | 1000.4 |
| 20260506213001 | 77 | 279 | 8.7 | 14.8 | 0.00 | 0.00 | 0.00 | 13 | 1000.5 |
| 20260506211559 | 77 | 251 | 7.0 | 11.3 | 0.00 | 0.00 | 0.00 | 16 | 1000.6 |
| 20260506210057 | 77 | 312 | 8.7 | 21.7 | 0.00 | 0.00 | 0.00 | 16 | 1000.8 |
| 20260506204601 | 76 | 235 | 1.7 | 7.8 | 0.00 | 0.00 | 0.00 | 19 | 1001.0 |
| 20260506203056 | 76 | 246 | 7.0 | 15.6 | 0.00 | 0.00 | 0.00 | 18 | 1001.3 |
| 20260506201557 | 77 | 290 | 7.0 | 12.2 | 0.00 | 0.00 | 0.00 | 18 | 1001.2 |
| 20260506200108 | 76 | 274 | 4.3 | 9.6 | 0.00 | 0.00 | 0.00 | 19 | 1001.4 |
| 20260506194606 | 75 | 259 | 6.1 | 12.2 | 0.00 | 0.00 | 0.00 | 19 | 1001.6 |
| 20260506193051 | 75 | 252 | 2.6 | 11.3 | 0.00 | 0.00 | 0.00 | 18 | 1001.8 |
| 20260506191550 | 76 | 274 | 7.8 | 15.6 | 0.00 | 0.00 | 0.00 | 17 | 1001.8 |
| 20260506190046 | 75 | 244 | 5.2 | 20.0 | 0.00 | 0.00 | 0.00 | 19 | 1001.8 |
| 20260506184546 | 74 | 309 | 7.8 | 12.2 | 0.00 | 0.00 | 0.00 | 23 | 1002.0 |
| 20260506183059 | 73 | 251 | 2.6 | 11.3 | 0.00 | 0.00 | 0.00 | 21 | 1002.1 |
| 20260506181549 | 73 | 355 | 3.5 | 11.3 | 0.00 | 0.00 | 0.00 | 25 | 1002.3 |
| 20260506180040 | 73 | 355 | 2.6 | 11.3 | 0.00 | 0.00 | 0.00 | 24 | 1002.3 |
| 20260506174539 | 72 | 266 | 7.0 | 12.2 | 0.00 | 0.00 | 0.00 | 24 | 1002.5 |
| 20260506173040 | 72 | 256 | 5.2 | 11.3 | 0.00 | 0.00 | 0.00 | 25 | 1002.5 |
| 20260506171543 | 71 | 284 | 1.7 | 12.2 | 0.00 | 0.00 | 0.00 | 26 | 1002.6 |